Find Starlink 36883

NORAD ID: 67975 Int'l Des: 2026-038 Owner: SPXS Country: US Constellation: starlink operational
LEOCIRCULARRETROGRADE

Live Position

Loading 3D Globe...

About Starlink 36883

Description loading...

Upcoming Passes

Passes for default location (London). Set your location on the main map for personalized predictions.

Altitude History

Loading altitude history...

Two-Line Element Set

1 67975U 26038Q 26104.97883218 .00014162 00000-0 44009-3 0 9996
2 67975 97.2844 115.6193 0001806 100.5243 259.6204 15.33450768 8802
Epoch: Apr 14, 2026 • Age: 11 hours

Current Status

Altitude 472.2 km
Velocity 7.64 km/s
Sub-Earth Point 47.72°N, 104.48°E
Launch Date Feb 25, 2026
Age 0.1 years
Type internet

Technical Details

Classification Payload
Mass 575.00 kg
Dry Mass 530.00 kg
Total Mass 575.00 kg
Length 0.30 m
Diameter 4.10 m
Span 29.00 m
Shape Box + pan
Manufacturer SPXS
Bus Type Starlink V2MO
Phase Status In Orbit
Owner/State SPXS/US

Most Searched